Simultaneous Nadir Overpasses (SNOs) Predictions

Prediction of SNOs near equator between NOAA-19 and NPP Satellite Orbit:

Table of predicted SNOs near equator for the next 14.0 days since TLE Epoch: 7/23/2012
Index Date (NOAA-19) Time (NOAA-19) NOAA-19 Lat,Lon Date (NPP) Time (NPP) NPP Lat,Lon Distance(km) Time Diff (sec)
1 07/28/2012 17:30:04 -29.98, 115.57 07/28/2012 17:24:46 -29.79, 114.61 95.02 318
2 07/28/2012 18:21:06 29.99, -77.19 07/28/2012 18:15:35 29.82, -78.10 89.82 331
3 07/28/2012 19:12:09 -29.97, 90.05 07/28/2012 19:06:16 -29.80, 89.23 81.26 353
4 07/28/2012 20:03:11 29.98,-102.71 07/28/2012 19:57:05 29.83,-103.48 76.03 366
5 07/28/2012 20:54:14 -29.96, 64.54 07/28/2012 20:47:46 -29.80, 63.86 67.52 388
6 07/28/2012 21:45:16 29.97,-128.23 07/28/2012 21:38:35 29.83,-128.85 62.28 401
7 07/28/2012 22:36:19 -29.95, 39.02 07/28/2012 22:29:16 -29.81, 38.48 53.85 423
8 07/28/2012 23:27:21 29.96,-153.74 07/28/2012 23:20:05 29.84,-154.23 48.57 436
9 07/29/2012 00:18:25 -30.00, 13.48 07/29/2012 00:10:48 -29.93, 13.07 39.99 457
10 07/29/2012 01:09:26 29.95,-179.26 07/29/2012 01:01:36 29.90,-179.62 34.90 470
11 07/29/2012 02:00:30 -29.99, -12.04 07/29/2012 01:52:18 -29.93, -12.30 26.21 492
12 07/29/2012 02:51:32 30.00, 155.20 07/29/2012 02:43:07 29.97, 154.99 21.04 505
13 07/29/2012 03:42:35 -29.98, -37.56 07/29/2012 03:33:48 -29.94, -37.68 12.56 527
14 07/29/2012 04:33:37 29.99, 129.68 07/29/2012 04:24:37 29.97, 129.61 7.24 540
15 07/29/2012 05:22:54 -23.81, -61.42 07/29/2012 05:13:33 -23.81, -61.44
